Location: Newark
(33.6333°S, 78.8500°W)
Time: 15:26:01
(UTC+00:00)

ISS - Pass Details

Date: 23 August 2019
Orbit: 411 x 421 km, 51.6° (Epoch: 18 September)

Event Time Altitude Azimuth Distance (km) Brightness Sun altitude
Rises 00:24:59 0° 278° (W) 2,370 1.6 -20.2°
Reaches altitude 10° 00:27:34 10° 257° (WSW) 1,509 0.2 -20.8°
Maximum altitude 00:29:57 18° 212° (SSW) 1,130 -1.2 -21.2°
Enters shadow 00:31:13 15° 185° (S) 1,249 -1.3 -21.5°
